contact:dominique.lefevre@mio.osupytheas.fr, maurice.libes@osupytheas.fr, didier.mallarino@osupytheas.fr
Project:EMSO http://www.emso-fr.org/EMSO-France
Depth: 2436.0 m
Title:EMSO Ligure Ouest : Data MII capteur CSTAR
DateTime,Latitude,Longitude,Instrument_Serial,Reference_Counts,Signal_Counts,Corrected_Signal_raw_counts,Calculated_Beam_c_inverse_meters,Internal_thermistor_counts
DateTime,Latitude,Longitude,Instrument_Serial,Reference_Counts,Signal_Counts,Corrected_Signal_raw_counts,Calculated_Beam_c_inverse_meters,Internal_thermistor_counts
2019-06-21T00:00:47,42.805,6.029,CST-1368DR,8968,12551,15521,0.024,551
2019-06-21T00:03:48,42.805,6.029,CST-1368DR,8968,12550,15521,0.024,550
2019-06-21T00:06:50,42.805,6.029,CST-1368DR,8968,12542,15511,0.027,551
2019-06-21T00:09:51,42.805,6.029,CST-1368DR,8968,12551,15522,0.024,551
2019-06-21T00:12:53,42.805,6.029,CST-1368DR,8968,12547,15517,0.025,551
2019-06-21T00:15:54,42.805,6.029,CST-1368DR,8968,12551,15522,0.024,551
2019-06-21T00:18:56,42.805,6.029,CST-1368DR,8968,12552,15523,0.024,551
2019-06-21T00:21:57,42.805,6.029,CST-1368DR,8967,12549,15521,0.024,551
2019-06-21T00:24:58,42.805,6.029,CST-1368DR,8967,12551,15524,0.024,550
2019-06-21T00:28:00,42.805,6.029,CST-1368DR,8967,12545,15517,0.025,551
2019-06-21T00:31:01,42.805,6.029,CST-1368DR,8967,12549,15521,0.024,550
2019-06-21T00:34:03,42.805,6.029,CST-1368DR,8967,12550,15522,0.024,551
2019-06-21T00:37:04,42.805,6.029,CST-1368DR,8967,12549,15522,0.024,551
2019-06-21T00:40:05,42.805,6.029,CST-1368DR,8967,12552,15525,0.023,551
2019-06-21T00:43:07,42.805,6.029,CST-1368DR,8967,12550,15523,0.024,551
2019-06-21T00:46:08,42.805,6.029,CST-1368DR,8967,12550,15522,0.024,551
2019-06-21T00:49:10,42.805,6.029,CST-1368DR,8967,12543,15514,0.026,551
2019-06-21T00:52:11,42.805,6.029,CST-1368DR,8967,12550,15522,0.024,551
2019-06-21T00:55:12,42.805,6.029,CST-1368DR,8967,12547,15519,0.025,551
2019-06-21T00:58:14,42.805,6.029,CST-1368DR,8967,12548,15520,0.025,551
2019-06-21T01:01:15,42.805,6.029,CST-1368DR,8967,12550,15522,0.024,551
2019-06-21T01:04:17,42.805,6.029,CST-1368DR,8967,12550,15522,0.024,551
2019-06-21T01:07:18,42.805,6.029,CST-1368DR,8967,12550,15522,0.024,551
2019-06-21T01:10:19,42.805,6.029,CST-1368DR,8967,12550,15522,0.024,551
2019-06-21T01:13:21,42.805,6.029,CST-1368DR,8967,12550,15522,0.024,551
2019-06-21T01:16:22,42.805,6.029,CST-1368DR,8967,12550,15522,0.024,551
2019-06-21T01:19:24,42.805,6.029,CST-1368DR,8967,12546,15517,0.025,551
2019-06-21T01:22:25,42.805,6.029,CST-1368DR,8967,12550,15522,0.024,551
2019-06-21T01:25:27,42.805,6.029,CST-1368DR,8967,12550,15522,0.024,551
2019-06-21T01:28:28,42.805,6.029,CST-1368DR,8967,12549,15522,0.024,551
2019-06-21T01:31:29,42.805,6.029,CST-1368DR,8967,12549,15521,0.024,551
2019-06-21T01:34:31,42.805,6.029,CST-1368DR,8967,12548,15520,0.025,551
2019-06-21T01:37:32,42.805,6.029,CST-1368DR,8967,12545,15516,0.026,551
2019-06-21T01:40:34,42.805,6.029,CST-1368DR,8967,12549,15521,0.024,550
2019-06-21T01:43:35,42.805,6.029,CST-1368DR,8966,12549,15522,0.024,551
2019-06-21T01:46:36,42.805,6.029,CST-1368DR,8966,12548,15522,0.024,551
2019-06-21T01:49:38,42.805,6.029,CST-1368DR,8966,12548,15522,0.024,550
2019-06-21T01:52:39,42.805,6.029,CST-1368DR,8966,12547,15520,0.025,551
2019-06-21T01:55:41,42.805,6.029,CST-1368DR,8966,12550,15524,0.024,551
2019-06-21T01:58:42,42.805,6.029,CST-1368DR,8966,12549,15523,0.024,550
2019-06-21T02:01:43,42.805,6.029,CST-1368DR,8966,12548,15521,0.024,550
2019-06-21T02:04:45,42.805,6.029,CST-1368DR,8966,12549,15522,0.024,551
2019-06-21T02:07:46,42.805,6.029,CST-1368DR,8966,12549,15522,0.024,551
2019-06-21T02:10:48,42.805,6.029,CST-1368DR,8966,12546,15519,0.025,551
2019-06-21T02:13:49,42.805,6.029,CST-1368DR,8966,12546,15518,0.025,551
2019-06-21T02:16:50,42.805,6.029,CST-1368DR,8966,12547,15520,0.025,551
2019-06-21T02:19:52,42.805,6.029,CST-1368DR,8966,12542,15514,0.026,551
2019-06-21T02:22:53,42.805,6.029,CST-1368DR,8966,12549,15523,0.024,550
2019-06-21T02:25:55,42.805,6.029,CST-1368DR,8966,12549,15523,0.024,551
2019-06-21T02:28:56,42.805,6.029,CST-1368DR,8966,12545,15517,0.025,550
2019-06-21T02:31:58,42.805,6.029,CST-1368DR,8966,12549,15522,0.024,551
2019-06-21T02:34:59,42.805,6.029,CST-1368DR,8966,12545,15518,0.025,551
2019-06-21T02:38:00,42.805,6.029,CST-1368DR,8966,12546,15519,0.025,551
2019-06-21T02:41:02,42.805,6.029,CST-1368DR,8966,12549,15522,0.024,550
2019-06-21T02:44:03,42.805,6.029,CST-1368DR,8966,12544,15517,0.025,551
2019-06-21T02:47:05,42.805,6.029,CST-1368DR,8966,12547,15520,0.025,551
2019-06-21T02:50:06,42.805,6.029,CST-1368DR,8966,12548,15522,0.024,550
2019-06-21T02:53:07,42.805,6.029,CST-1368DR,8966,12547,15520,0.025,550
2019-06-21T02:56:09,42.805,6.029,CST-1368DR,8966,12548,15521,0.024,551
2019-06-21T02:59:10,42.805,6.029,CST-1368DR,8966,12547,15521,0.024,551
2019-06-21T03:02:12,42.805,6.029,CST-1368DR,8966,12546,15519,0.025,551
2019-06-21T03:05:13,42.805,6.029,CST-1368DR,8966,12546,15519,0.025,551
2019-06-21T03:08:14,42.805,6.029,CST-1368DR,8966,12547,15520,0.025,551
2019-06-21T03:11:16,42.805,6.029,CST-1368DR,8966,12547,15520,0.025,551
2019-06-21T03:14:17,42.805,6.029,CST-1368DR,8966,12541,15512,0.027,551
2019-06-21T03:17:19,42.805,6.029,CST-1368DR,8966,12547,15520,0.025,551
2019-06-21T03:20:20,42.805,6.029,CST-1368DR,8966,12547,15521,0.024,551
2019-06-21T03:23:21,42.805,6.029,CST-1368DR,8965,12549,15524,0.024,551
2019-06-21T03:26:23,42.805,6.029,CST-1368DR,8965,12547,15522,0.024,551
2019-06-21T03:29:24,42.805,6.029,CST-1368DR,8965,12546,15521,0.024,551
2019-06-21T03:32:26,42.805,6.029,CST-1368DR,8965,12547,15522,0.024,550
2019-06-21T03:35:27,42.805,6.029,CST-1368DR,8965,12541,15514,0.026,551
2019-06-21T03:38:29,42.805,6.029,CST-1368DR,8965,12510,15476,0.036,551
2019-06-21T03:41:30,42.805,6.029,CST-1368DR,8965,12547,15522,0.024,551
2019-06-21T03:44:31,42.805,6.029,CST-1368DR,8965,12546,15521,0.024,551
2019-06-21T03:47:33,42.805,6.029,CST-1368DR,8965,12547,15522,0.024,551
2019-06-21T03:50:34,42.805,6.029,CST-1368DR,8965,12547,15522,0.024,550
2019-06-21T03:53:36,42.805,6.029,CST-1368DR,8965,12546,15520,0.025,551
2019-06-21T03:56:37,42.805,6.029,CST-1368DR,8965,12547,15522,0.024,551
2019-06-21T03:59:38,42.805,6.029,CST-1368DR,8965,12548,15523,0.024,551
2019-06-21T04:02:40,42.805,6.029,CST-1368DR,8965,12543,15517,0.025,550
2019-06-21T04:05:41,42.805,6.029,CST-1368DR,8965,12545,15519,0.025,551
2019-06-21T04:08:43,42.805,6.029,CST-1368DR,8965,12547,15522,0.024,551
2019-06-21T04:11:44,42.805,6.029,CST-1368DR,8965,12541,15515,0.026,550
2019-06-21T04:14:45,42.805,6.029,CST-1368DR,8965,12546,15521,0.024,550
2019-06-21T04:17:47,42.805,6.029,CST-1368DR,8965,12545,15520,0.025,550
2019-06-21T04:20:48,42.805,6.029,CST-1368DR,8965,12545,15520,0.025,551
2019-06-21T04:23:50,42.805,6.029,CST-1368DR,8965,12545,15520,0.025,551
2019-06-21T04:26:51,42.805,6.029,CST-1368DR,8965,12545,15519,0.025,551
2019-06-21T04:29:52,42.805,6.029,CST-1368DR,8965,12547,15521,0.024,551
2019-06-21T04:32:54,42.805,6.029,CST-1368DR,8965,12546,15520,0.025,551
2019-06-21T04:35:55,42.805,6.029,CST-1368DR,8965,12543,15517,0.025,551
2019-06-21T04:38:57,42.805,6.029,CST-1368DR,8965,12546,15520,0.025,551
2019-06-21T04:41:58,42.805,6.029,CST-1368DR,8965,12545,15519,0.025,551
2019-06-21T04:45:00,42.805,6.029,CST-1368DR,8965,12544,15518,0.025,551
2019-06-21T04:48:01,42.805,6.029,CST-1368DR,8965,12545,15520,0.025,551
2019-06-21T04:51:02,42.805,6.029,CST-1368DR,8965,12544,15518,0.025,551
2019-06-21T04:54:04,42.805,6.029,CST-1368DR,8965,12544,15518,0.025,551
2019-06-21T04:57:05,42.805,6.029,CST-1368DR,8965,12544,15518,0.025,551
2019-06-21T05:00:07,42.805,6.029,CST-1368DR,8965,12546,15520,0.025,551
2019-06-21T05:03:08,42.805,6.029,CST-1368DR,8965,12544,15518,0.025,551
2019-06-21T05:06:09,42.805,6.029,CST-1368DR,8965,12546,15520,0.025,551
2019-06-21T05:09:11,42.805,6.029,CST-1368DR,8965,12546,15520,0.025,551
2019-06-21T05:12:12,42.805,6.029,CST-1368DR,8965,12546,15520,0.025,551
2019-06-21T05:15:14,42.805,6.029,CST-1368DR,8965,12545,15520,0.025,551
2019-06-21T05:18:15,42.805,6.029,CST-1368DR,8965,12543,15517,0.025,551
2019-06-21T05:21:16,42.805,6.029,CST-1368DR,8965,12545,15519,0.025,551
2019-06-21T05:24:18,42.805,6.029,CST-1368DR,8964,12546,15522,0.024,551
2019-06-21T05:27:19,42.805,6.029,CST-1368DR,8964,12546,15522,0.024,551
2019-06-21T05:30:21,42.805,6.029,CST-1368DR,8965,12545,15520,0.025,551
2019-06-21T05:33:22,42.805,6.029,CST-1368DR,8964,12544,15519,0.025,551
2019-06-21T05:36:24,42.805,6.029,CST-1368DR,8964,12536,15510,0.027,551
2019-06-21T05:39:25,42.805,6.029,CST-1368DR,8964,12547,15523,0.024,551
2019-06-21T05:42:26,42.805,6.029,CST-1368DR,8964,12547,15523,0.024,551
2019-06-21T05:45:28,42.805,6.029,CST-1368DR,8964,12545,15521,0.024,551
2019-06-21T05:48:29,42.805,6.029,CST-1368DR,8964,12545,15520,0.025,551
2019-06-21T05:51:31,42.805,6.029,CST-1368DR,8964,12544,15519,0.025,551
2019-06-21T05:54:32,42.805,6.029,CST-1368DR,8964,12547,15523,0.024,551
2019-06-21T05:57:33,42.805,6.029,CST-1368DR,8964,12541,15516,0.026,551
2019-06-21T06:00:35,42.805,6.029,CST-1368DR,8964,12544,15519,0.025,551
2019-06-21T06:03:36,42.805,6.029,CST-1368DR,8964,12545,15521,0.024,551
2019-06-21T06:06:38,42.805,6.029,CST-1368DR,8964,12542,15517,0.025,550
2019-06-21T06:09:39,42.805,6.029,CST-1368DR,8964,12545,15520,0.025,551
2019-06-21T06:12:40,42.805,6.029,CST-1368DR,8964,12546,15523,0.024,551
2019-06-21T06:15:42,42.805,6.029,CST-1368DR,8964,12541,15516,0.026,551
2019-06-21T06:18:43,42.805,6.029,CST-1368DR,8964,12545,15521,0.024,551
2019-06-21T06:21:45,42.805,6.029,CST-1368DR,8964,12539,15513,0.026,551
2019-06-21T06:24:46,42.805,6.029,CST-1368DR,8964,12540,15514,0.026,551
2019-06-21T06:27:47,42.805,6.029,CST-1368DR,8964,12537,15511,0.027,551
2019-06-21T06:30:49,42.805,6.029,CST-1368DR,8964,12545,15520,0.025,550
2019-06-21T06:33:50,42.805,6.029,CST-1368DR,8964,12539,15513,0.026,551
2019-06-21T06:36:52,42.805,6.029,CST-1368DR,8964,12545,15521,0.024,551
2019-06-21T06:39:53,42.805,6.029,CST-1368DR,8964,12545,15521,0.024,551
2019-06-21T06:42:55,42.805,6.029,CST-1368DR,8964,12545,15521,0.024,551
2019-06-21T06:45:56,42.805,6.029,CST-1368DR,8964,12542,15518,0.025,551
2019-06-21T06:48:57,42.805,6.029,CST-1368DR,8964,12543,15518,0.025,551
2019-06-21T06:51:59,42.805,6.029,CST-1368DR,8964,12544,15519,0.025,551
2019-06-21T06:55:00,42.805,6.029,CST-1368DR,8964,12545,15521,0.024,550
2019-06-21T06:58:02,42.805,6.029,CST-1368DR,8964,12544,15519,0.025,551
2019-06-21T07:01:03,42.805,6.029,CST-1368DR,8964,12544,15520,0.025,551
2019-06-21T07:04:04,42.805,6.029,CST-1368DR,8964,12534,15508,0.028,551
2019-06-21T07:07:06,42.805,6.029,CST-1368DR,8964,12544,15519,0.025,551
2019-06-21T07:10:07,42.805,6.029,CST-1368DR,8964,12543,15518,0.025,551
2019-06-21T07:13:09,42.805,6.029,CST-1368DR,8964,12537,15511,0.027,551
2019-06-21T07:16:10,42.805,6.029,CST-1368DR,8964,12544,15519,0.025,551
2019-06-21T07:19:11,42.805,6.029,CST-1368DR,8963,12542,15519,0.025,551
2019-06-21T07:22:13,42.805,6.029,CST-1368DR,8964,12543,15518,0.025,551
2019-06-21T07:25:14,42.805,6.029,CST-1368DR,8964,12542,15517,0.025,551
2019-06-21T07:28:16,42.805,6.029,CST-1368DR,8964,12543,15519,0.025,551
2019-06-21T07:31:17,42.805,6.029,CST-1368DR,8963,12546,15523,0.024,551
2019-06-21T07:34:18,42.805,6.029,CST-1368DR,8963,12541,15518,0.025,551
2019-06-21T07:37:20,42.805,6.029,CST-1368DR,8963,12542,15519,0.025,551
2019-06-21T07:40:21,42.805,6.029,CST-1368DR,8963,12545,15522,0.024,551
2019-06-21T07:43:23,42.805,6.029,CST-1368DR,8963,12543,15520,0.025,550
2019-06-21T07:46:24,42.805,6.029,CST-1368DR,8963,12543,15520,0.025,551
2019-06-21T07:49:26,42.805,6.029,CST-1368DR,8963,12544,15521,0.024,550
2019-06-21T07:52:27,42.805,6.029,CST-1368DR,8963,12538,15514,0.026,551
2019-06-21T07:55:28,42.805,6.029,CST-1368DR,8963,12545,15522,0.024,551
2019-06-21T07:58:30,42.805,6.029,CST-1368DR,8963,12543,15520,0.025,551
2019-06-21T08:01:31,42.805,6.029,CST-1368DR,8963,12543,15520,0.025,551
2019-06-21T08:04:33,42.805,6.029,CST-1368DR,8963,12543,15520,0.025,551
2019-06-21T08:07:34,42.805,6.029,CST-1368DR,8963,12544,15521,0.024,551
2019-06-21T08:10:35,42.805,6.029,CST-1368DR,8963,12546,15523,0.024,550
2019-06-21T08:13:37,42.805,6.029,CST-1368DR,8963,12542,15519,0.025,551
2019-06-21T08:16:38,42.805,6.029,CST-1368DR,8963,12544,15521,0.024,551
2019-06-21T08:19:40,42.805,6.029,CST-1368DR,8963,12544,15521,0.024,550
2019-06-21T08:22:41,42.805,6.029,CST-1368DR,8963,12543,15520,0.025,550
2019-06-21T08:25:42,42.805,6.029,CST-1368DR,8963,12543,15520,0.025,551
2019-06-21T08:28:44,42.805,6.029,CST-1368DR,8963,12544,15521,0.024,551
2019-06-21T08:31:45,42.805,6.029,CST-1368DR,8963,12541,15518,0.025,551
2019-06-21T08:34:47,42.805,6.029,CST-1368DR,8963,12544,15521,0.024,551
2019-06-21T08:37:48,42.805,6.029,CST-1368DR,8963,12540,15516,0.026,551
2019-06-21T08:40:49,42.805,6.029,CST-1368DR,8963,12542,15519,0.025,550
2019-06-21T08:43:51,42.805,6.029,CST-1368DR,8963,12539,15515,0.026,551
2019-06-21T08:46:52,42.805,6.029,CST-1368DR,8963,12545,15522,0.024,551
2019-06-21T08:49:54,42.805,6.029,CST-1368DR,8963,12543,15520,0.025,551
2019-06-21T08:52:55,42.805,6.029,CST-1368DR,8963,12542,15519,0.025,551
2019-06-21T08:55:57,42.805,6.029,CST-1368DR,8963,12544,15521,0.024,551
2019-06-21T08:58:58,42.805,6.029,CST-1368DR,8963,12544,15521,0.024,551
2019-06-21T09:01:59,42.805,6.029,CST-1368DR,8963,12545,15522,0.024,551
2019-06-21T09:05:01,42.805,6.029,CST-1368DR,8963,12543,15520,0.025,551
2019-06-21T09:08:02,42.805,6.029,CST-1368DR,8963,12542,15519,0.025,551
2019-06-21T09:11:04,42.805,6.029,CST-1368DR,8963,12544,15521,0.024,551
2019-06-21T09:14:05,42.805,6.029,CST-1368DR,8962,12544,15523,0.024,550
2019-06-21T09:17:06,42.805,6.029,CST-1368DR,8963,12543,15520,0.025,551
2019-06-21T09:20:08,42.805,6.029,CST-1368DR,8962,12544,15523,0.024,551
2019-06-21T09:23:09,42.805,6.029,CST-1368DR,8962,12540,15518,0.025,551
2019-06-21T09:26:11,42.805,6.029,CST-1368DR,8962,12544,15523,0.024,551
2019-06-21T09:29:12,42.805,6.029,CST-1368DR,8962,12542,15520,0.025,551
2019-06-21T09:32:13,42.805,6.029,CST-1368DR,8962,12543,15522,0.024,551
2019-06-21T09:35:15,42.805,6.029,CST-1368DR,8962,12543,15522,0.024,550
2019-06-21T09:38:16,42.805,6.029,CST-1368DR,8962,12543,15521,0.024,551
2019-06-21T09:41:18,42.805,6.029,CST-1368DR,8962,12542,15520,0.025,551
2019-06-21T09:44:19,42.805,6.029,CST-1368DR,8962,12543,15521,0.024,551
2019-06-21T09:47:21,42.805,6.029,CST-1368DR,8962,12542,15520,0.025,551
2019-06-21T09:50:22,42.805,6.029,CST-1368DR,8962,12543,15521,0.024,551
2019-06-21T09:53:23,42.805,6.029,CST-1368DR,8962,12544,15522,0.024,551
2019-06-21T09:56:25,42.805,6.029,CST-1368DR,8962,12542,15520,0.025,551
2019-06-21T09:59:26,42.805,6.029,CST-1368DR,8962,12544,15522,0.024,551
2019-06-21T10:02:28,42.805,6.029,CST-1368DR,8962,12542,15520,0.025,551
2019-06-21T10:05:29,42.805,6.029,CST-1368DR,8962,12540,15518,0.025,551
2019-06-21T10:08:30,42.805,6.029,CST-1368DR,8962,12540,15518,0.025,551
2019-06-21T10:11:32,42.805,6.029,CST-1368DR,8962,12542,15521,0.024,551
2019-06-21T10:14:33,42.805,6.029,CST-1368DR,8962,12542,15520,0.025,551
2019-06-21T10:17:35,42.805,6.029,CST-1368DR,8962,12540,15518,0.025,551
2019-06-21T10:20:36,42.805,6.029,CST-1368DR,8962,12541,15520,0.025,550
2019-06-21T10:23:37,42.805,6.029,CST-1368DR,8962,12533,15510,0.027,551
2019-06-21T10:26:39,42.805,6.029,CST-1368DR,8962,12541,15519,0.025,551
2019-06-21T10:29:40,42.805,6.029,CST-1368DR,8962,12541,15519,0.025,550
2019-06-21T10:32:42,42.805,6.029,CST-1368DR,8962,12542,15520,0.025,551
2019-06-21T10:35:43,42.805,6.029,CST-1368DR,8961,12538,15517,0.025,551
2019-06-21T10:38:44,42.805,6.029,CST-1368DR,8961,12541,15520,0.025,551
2019-06-21T10:41:46,42.805,6.029,CST-1368DR,8962,12539,15517,0.025,550
2019-06-21T10:44:47,42.805,6.029,CST-1368DR,8961,12540,15520,0.025,551
2019-06-21T10:47:49,42.805,6.029,CST-1368DR,8962,12541,15519,0.025,551
2019-06-21T10:50:50,42.805,6.029,CST-1368DR,8961,12540,15519,0.025,551
2019-06-21T10:53:52,42.805,6.029,CST-1368DR,8961,12540,15520,0.025,551
2019-06-21T10:56:53,42.805,6.029,CST-1368DR,8961,12540,15520,0.025,551
2019-06-21T10:59:54,42.805,6.029,CST-1368DR,8961,12540,15519,0.025,551
2019-06-21T11:02:56,42.805,6.029,CST-1368DR,8961,12539,15518,0.025,551
2019-06-21T11:05:57,42.805,6.029,CST-1368DR,8961,12540,15520,0.025,551
2019-06-21T11:08:59,42.805,6.029,CST-1368DR,8961,12542,15522,0.024,551
2019-06-21T11:12:00,42.805,6.029,CST-1368DR,8961,12536,15515,0.026,551
2019-06-21T11:15:01,42.805,6.029,CST-1368DR,8961,12540,15520,0.025,551
2019-06-21T11:18:03,42.805,6.029,CST-1368DR,8961,12541,15521,0.024,551
2019-06-21T11:21:04,42.805,6.029,CST-1368DR,8961,12541,15521,0.024,551
2019-06-21T11:24:06,42.805,6.029,CST-1368DR,8961,12540,15519,0.025,551
2019-06-21T11:27:07,42.805,6.029,CST-1368DR,8961,12541,15521,0.024,551
2019-06-21T11:30:08,42.805,6.029,CST-1368DR,8961,12540,15520,0.025,551
2019-06-21T11:33:10,42.805,6.029,CST-1368DR,8961,12541,15521,0.024,551
2019-06-21T11:36:11,42.805,6.029,CST-1368DR,8961,12541,15521,0.024,551
2019-06-21T11:39:13,42.805,6.029,CST-1368DR,8961,12534,15512,0.027,551
2019-06-21T11:42:14,42.805,6.029,CST-1368DR,8961,12540,15520,0.025,551
2019-06-21T11:45:15,42.805,6.029,CST-1368DR,8961,12540,15519,0.025,551
2019-06-21T11:48:17,42.805,6.029,CST-1368DR,8961,12540,15520,0.025,551
2019-06-21T11:51:18,42.805,6.029,CST-1368DR,8961,12540,15519,0.025,551
2019-06-21T11:54:20,42.805,6.029,CST-1368DR,8961,12539,15518,0.025,550
2019-06-21T11:57:21,42.805,6.029,CST-1368DR,8961,12540,15520,0.025,551
2019-06-21T12:00:23,42.805,6.029,CST-1368DR,8961,12537,15516,0.026,551
2019-06-21T12:03:24,42.805,6.029,CST-1368DR,8961,12540,15520,0.025,550
2019-06-21T12:06:25,42.805,6.029,CST-1368DR,8961,12539,15518,0.025,551
2019-06-21T12:09:27,42.805,6.029,CST-1368DR,8961,12538,15517,0.025,551
2019-06-21T12:12:28,42.805,6.029,CST-1368DR,8961,12539,15518,0.025,551
2019-06-21T12:15:30,42.805,6.029,CST-1368DR,8961,12539,15518,0.025,551
2019-06-21T12:18:31,42.805,6.029,CST-1368DR,8961,12541,15520,0.025,551
2019-06-21T12:21:32,42.805,6.029,CST-1368DR,8961,12540,15520,0.025,550
2019-06-21T12:24:34,42.805,6.029,CST-1368DR,8961,12540,15519,0.025,551
2019-06-21T12:27:35,42.805,6.029,CST-1368DR,8961,12540,15520,0.025,551
2019-06-21T12:30:37,42.805,6.029,CST-1368DR,8961,12535,15514,0.026,551
2019-06-21T12:33:38,42.805,6.029,CST-1368DR,8961,12540,15520,0.025,550
2019-06-21T12:36:39,42.805,6.029,CST-1368DR,8960,12539,15520,0.025,551
2019-06-21T12:39:41,42.805,6.029,CST-1368DR,8960,12537,15517,0.025,551
2019-06-21T12:42:42,42.805,6.029,CST-1368DR,8960,12535,15514,0.026,551
2019-06-21T12:45:44,42.805,6.029,CST-1368DR,8960,12539,15520,0.025,551
2019-06-21T12:48:45,42.805,6.029,CST-1368DR,8960,12539,15519,0.025,550
2019-06-21T12:51:46,42.805,6.029,CST-1368DR,8960,12540,15521,0.024,551
2019-06-21T12:54:48,42.805,6.029,CST-1368DR,8960,12538,15518,0.025,551
2019-06-21T12:57:49,42.805,6.029,CST-1368DR,8960,12538,15518,0.025,551
2019-06-21T13:00:51,42.805,6.029,CST-1368DR,8960,12538,15519,0.025,551
2019-06-21T13:03:52,42.805,6.029,CST-1368DR,8960,12538,15519,0.025,551
2019-06-21T13:06:54,42.805,6.029,CST-1368DR,8960,12538,15519,0.025,551
2019-06-21T13:09:55,42.805,6.029,CST-1368DR,8960,12539,15520,0.025,551
2019-06-21T13:12:56,42.805,6.029,CST-1368DR,8960,12537,15517,0.025,551
2019-06-21T13:15:58,42.805,6.029,CST-1368DR,8960,12538,15519,0.025,551
2019-06-21T13:18:59,42.805,6.029,CST-1368DR,8960,12535,15515,0.026,551
2019-06-21T13:22:01,42.805,6.029,CST-1368DR,8960,12535,15515,0.026,550
2019-06-21T13:25:02,42.805,6.029,CST-1368DR,8960,12536,15516,0.026,551
2019-06-21T13:28:03,42.805,6.029,CST-1368DR,8960,12534,15513,0.026,551
2019-06-21T13:31:05,42.805,6.029,CST-1368DR,8960,12535,15515,0.026,551
2019-06-21T13:34:06,42.805,6.029,CST-1368DR,8960,12537,15517,0.025,551
2019-06-21T13:37:08,42.805,6.029,CST-1368DR,8960,12531,15509,0.028,550
2019-06-21T13:40:09,42.805,6.029,CST-1368DR,8960,12532,15512,0.027,550
2019-06-21T13:43:10,42.805,6.029,CST-1368DR,8960,12537,15517,0.025,551
2019-06-21T13:46:12,42.805,6.029,CST-1368DR,8960,12535,15514,0.026,551
2019-06-21T13:49:13,42.805,6.029,CST-1368DR,8960,12536,15516,0.026,551
2019-06-21T13:52:15,42.805,6.029,CST-1368DR,8960,12536,15516,0.026,551
2019-06-21T13:55:16,42.805,6.029,CST-1368DR,8960,12539,15519,0.025,551
2019-06-21T13:58:17,42.805,6.029,CST-1368DR,8960,12537,15517,0.025,551
2019-06-21T14:01:19,42.805,6.029,CST-1368DR,8960,12539,15520,0.025,551
2019-06-21T14:04:20,42.805,6.029,CST-1368DR,8960,12539,15520,0.025,551
2019-06-21T14:07:22,42.805,6.029,CST-1368DR,8960,12536,15516,0.026,551
2019-06-21T14:10:23,42.805,6.029,CST-1368DR,8960,12538,15519,0.025,551
2019-06-21T14:13:25,42.805,6.029,CST-1368DR,8960,12537,15517,0.025,550
2019-06-21T14:16:26,42.805,6.029,CST-1368DR,8959,12527,15507,0.028,551
2019-06-21T14:19:27,42.805,6.029,CST-1368DR,8960,12538,15519,0.025,551
2019-06-21T14:22:29,42.805,6.029,CST-1368DR,8960,12536,15516,0.026,551
2019-06-21T14:25:30,42.805,6.029,CST-1368DR,8959,12536,15518,0.025,550
2019-06-21T14:28:32,42.805,6.029,CST-1368DR,8959,12537,15518,0.025,550
2019-06-21T14:31:33,42.805,6.029,CST-1368DR,8959,12537,15519,0.025,551
2019-06-21T14:34:34,42.805,6.029,CST-1368DR,8959,12536,15518,0.025,550
2019-06-21T14:37:36,42.805,6.029,CST-1368DR,8959,12536,15517,0.025,551
2019-06-21T14:40:37,42.805,6.029,CST-1368DR,8959,12536,15517,0.025,551
2019-06-21T14:43:39,42.805,6.029,CST-1368DR,8959,12538,15520,0.025,551
2019-06-21T14:46:40,42.805,6.029,CST-1368DR,8959,12538,15520,0.025,551
2019-06-21T14:49:41,42.805,6.029,CST-1368DR,8959,12537,15519,0.025,551
2019-06-21T14:52:43,42.805,6.029,CST-1368DR,8959,12537,15519,0.025,551
2019-06-21T14:55:44,42.805,6.029,CST-1368DR,8959,12539,15521,0.024,551
2019-06-21T14:58:46,42.805,6.029,CST-1368DR,8959,12536,15518,0.025,551
2019-06-21T15:01:47,42.805,6.029,CST-1368DR,8959,12534,15515,0.026,551
2019-06-21T15:04:49,42.805,6.029,CST-1368DR,8959,12535,15516,0.026,550
2019-06-21T15:07:50,42.805,6.029,CST-1368DR,8959,12535,15517,0.025,551
2019-06-21T15:10:51,42.805,6.029,CST-1368DR,8959,12536,15517,0.025,551
2019-06-21T15:13:53,42.805,6.029,CST-1368DR,8959,12535,15516,0.026,551
2019-06-21T15:16:54,42.805,6.029,CST-1368DR,8959,12535,15517,0.025,550
2019-06-21T15:19:56,42.805,6.029,CST-1368DR,8959,12538,15520,0.025,551
2019-06-21T15:22:57,42.805,6.029,CST-1368DR,8959,12538,15520,0.025,551
2019-06-21T15:25:58,42.805,6.029,CST-1368DR,8959,12536,15518,0.025,551
2019-06-21T15:29:00,42.805,6.029,CST-1368DR,8959,12535,15516,0.026,551
2019-06-21T15:32:01,42.805,6.029,CST-1368DR,8959,12536,15518,0.025,551
2019-06-21T15:35:03,42.805,6.029,CST-1368DR,8959,12535,15516,0.026,551
2019-06-21T15:38:04,42.805,6.029,CST-1368DR,8959,12535,15517,0.025,551
2019-06-21T15:41:05,42.805,6.029,CST-1368DR,8958,12535,15518,0.025,551
2019-06-21T15:44:07,42.805,6.029,CST-1368DR,8959,12535,15517,0.025,551
2019-06-21T15:47:08,42.805,6.029,CST-1368DR,8959,12535,15517,0.025,550
2019-06-21T15:50:10,42.805,6.029,CST-1368DR,8958,12537,15520,0.025,551
2019-06-21T15:53:11,42.805,6.029,CST-1368DR,8958,12536,15519,0.025,550
2019-06-21T15:56:12,42.805,6.029,CST-1368DR,8958,12536,15520,0.025,551
2019-06-21T15:59:14,42.805,6.029,CST-1368DR,8958,12536,15519,0.025,551
2019-06-21T16:02:15,42.805,6.029,CST-1368DR,8958,12535,15518,0.025,551
2019-06-21T16:05:17,42.805,6.029,CST-1368DR,8958,12536,15520,0.025,551
2019-06-21T16:08:18,42.805,6.029,CST-1368DR,8958,12535,15518,0.025,551
2019-06-21T16:11:20,42.805,6.029,CST-1368DR,8958,12537,15520,0.025,551
2019-06-21T16:14:21,42.805,6.029,CST-1368DR,8958,12536,15519,0.025,551
2019-06-21T16:17:22,42.805,6.029,CST-1368DR,8958,12535,15518,0.025,551
2019-06-21T16:20:24,42.805,6.029,CST-1368DR,8958,12536,15519,0.025,551
2019-06-21T16:23:25,42.805,6.029,CST-1368DR,8958,12536,15519,0.025,551
2019-06-21T16:26:27,42.805,6.029,CST-1368DR,8958,12536,15519,0.025,551
2019-06-21T16:29:28,42.805,6.029,CST-1368DR,8958,12535,15518,0.025,551
2019-06-21T16:32:29,42.805,6.029,CST-1368DR,8958,12534,15516,0.026,551
2019-06-21T16:35:31,42.805,6.029,CST-1368DR,8958,12529,15510,0.027,551